Location: Lake Arresoe
(56.0000°N, 12.5000°E)
Time: 12:32:12
(UTC+02:00)

CZ-3 Stage 3 - Visible Passes

Search period start: 27 June 2017 00:00
Search period end: 07 July 2017 00:00
Orbit: 418 x 34780 km, 30.9° (Epoch: 26 June)

Date Brightness Start Highest point End Pass type
(mag) Time Alt. Az. Time Alt. Az. Time Alt. Az.
27 Jun 9.8 22:24:04 10° W 23:27:35 23° W 01:56:42 10° W visible
28 Jun 9.0 18:31:09 10° WSW 19:30:48 49° SSW 01:38:40 10° SW visible
29 Jun 7.5 14:53:44 10° SW 15:16:21 44° SSE 23:08:03 10° S visible
30 Jun 9.9 22:14:58 10° W 23:16:53 22° W 01:40:52 10° W visible
01 Jul 9.0 18:21:49 10° WSW 19:20:02 48° SSW 01:23:43 10° SW visible
02 Jul 7.5 14:44:23 10° SW 15:06:27 44° SSE 22:55:18 10° S visible
03 Jul 9.9 22:05:55 10° W 23:06:13 22° W 01:24:57 10° W visible
04 Jul 9.0 18:12:31 10° WSW 19:09:21 48° SSW 01:08:39 10° SW visible
05 Jul 7.5 14:35:03 10° SW 14:56:35 44° SSE 22:42:22 10° S visible
